Weather History for KBKW - August, 2013

Change the Weather History Date:

Monday, August 12, 2013

  Actual Average Record
Temperature  
Mean Temperature 73 °F 70 °F  
Max Temperature 80 °F 80 °F 100 °F (1926)
Min Temperature 66 °F 61 °F 40 °F (1954)
Degree Days  
Heating Degree Days 0 0  
Month to date heating degree days 1 0  
Since 1 June heating degree days 13 47  
Since 1 July heating degree days 6 8  
Cooling Degree Days 8 6  
Month to date cooling degree days 71 72  
Year to date cooling degree days 468 405  
Since 1 June cooling degree days 401 364  
Growing Degree Days 23 (Base 50)    
Moisture  
Dew Point 65 °F    
Average Humidity 76    
Maximum Humidity 93    
Minimum Humidity 58    
Precipitation  
Precipitation 0.12 in 0.11 in 3.77 in (1923)
Month to date precipitation 4.00 1.61  
Year to date precipitation 28.82 27.80  
Snow  
Snow 0.00 in - - ()
Month to date snowfall 0.0  
Since 1 September snowfall 72.0  
Snow Depth 0.00 in    
Sea Level Pressure  
Sea Level Pressure 30.11 in    
Wind  
Wind Speed 4 mph (WSW)    
Max Wind Speed 9 mph    
Max Gust Speed 14 mph    
Visibility 5 miles    
Events Fog , Rain    
T = Trace of Precipitation, MM = Missing Value Source: NWS Daily Summary

Daily Weather History Graph

Daily Weather History Graph

Search for Another Location

Airport or City:

Trip Planner

Search our weather history database for the weather conditions in past years. The results will help you decide how hot, cold, wet, or windy it might be!

Date:

Astronomy

Aug. 12, 2013 Rise Set
Actual Time 6:37 AM EDT 8:20 PM EDT
Civil Twilight 6:09 AM EDT 8:48 PM EDT
Nautical Twilight 5:35 AM EDT 9:22 PM EDT
Astronomical Twilight 4:59 AM EDT 9:58 PM EDT
Moon 12:19 PM EDT (8/12) 11:20 PM EDT (8/12)
Length of Visible Light 14h 39m
Length of Day
13h 43m
Waxing Crescent, 31% of the Moon is Illuminated
Aug 12
Waxing Crescent
Aug 14
First Quarter
Aug 20
Full
Aug 28
Last Quarter
Sep 5
New

Hourly Weather History & Observations

Time (EDT) Temp. Heat Index Dew Point Humidity Pressure Visibility Wind Dir Wind Speed Gust Speed Precip Events Conditions
12:43 AM 68.0 °F - 66.2 °F 94% 30.17 in 1.8 mi WSW 4.6 mph - N/A   Overcast
12:51 AM 68.0 °F - 66.9 °F 96% 30.07 in 0.8 mi SW 4.6 mph - N/A   Overcast
1:06 AM 68.0 °F - 66.2 °F 94% 30.17 in 2.0 mi SW 4.6 mph - N/A   Overcast
1:15 AM 68.0 °F - 66.2 °F 94% 30.18 in 4.0 mi SW 3.5 mph - N/A   Overcast
1:51 AM 69.1 °F - 66.9 °F 93% 30.08 in 7.0 mi Calm Calm - N/A   Overcast
2:17 AM 69.8 °F - 66.2 °F 88% 30.17 in 7.0 mi WSW 3.5 mph - N/A   Overcast
2:51 AM 68.0 °F - 66.0 °F 93% 30.07 in 7.0 mi WSW 4.6 mph - N/A   Mostly Cloudy
3:06 AM 68.0 °F - 66.2 °F 94% 30.17 in 6.0 mi SW 3.5 mph - N/A   Mostly Cloudy
3:51 AM 68.0 °F - 66.0 °F 93% 30.06 in 6.0 mi West 3.5 mph - N/A   Overcast
4:26 AM 66.2 °F - 64.4 °F 94% 30.16 in 3.0 mi Calm Calm - N/A   Scattered Clouds
4:28 AM 66.2 °F - 64.4 °F 94% 30.16 in 2.5 mi Calm Calm - N/A   Scattered Clouds
4:34 AM 66.2 °F - 66.2 °F 100% 30.17 in 1.2 mi Calm Calm - N/A   Mostly Cloudy
4:42 AM 66.2 °F - 66.2 °F 100% 30.17 in 2.0 mi West 3.5 mph - N/A   Mostly Cloudy
4:49 AM 68.0 °F - 66.2 °F 94% 30.17 in 4.0 mi WNW 4.6 mph - N/A   Mostly Cloudy
4:51 AM 68.0 °F - 66.0 °F 93% 30.08 in 5.0 mi WNW 4.6 mph - N/A   Overcast
5:07 AM 68.0 °F - 66.2 °F 94% 30.17 in 4.0 mi WNW 3.5 mph - N/A   Overcast
5:46 AM 66.2 °F - 64.4 °F 94% 30.17 in 4.0 mi WSW 3.5 mph - N/A   Overcast
5:51 AM 66.9 °F - 64.9 °F 93% 30.08 in 4.0 mi West 3.5 mph - N/A   Overcast
6:05 AM 66.2 °F - 64.4 °F 94% 30.17 in 1.8 mi Calm Calm - N/A   Mostly Cloudy
6:11 AM 66.2 °F - 64.4 °F 94% 30.17 in 0.8 mi Calm Calm - N/A   Mostly Cloudy
6:21 AM 66.2 °F - 64.4 °F 94% 30.17 in 2.0 mi WSW 3.5 mph - N/A   Mostly Cloudy
6:29 AM 66.2 °F - 64.4 °F 94% 30.17 in 3.0 mi WSW 3.5 mph - N/A   Overcast
6:43 AM 66.2 °F - 64.4 °F 94% 30.18 in 2.5 mi WSW 3.5 mph - N/A   Overcast
6:51 AM 66.9 °F - 64.9 °F 93% 30.09 in 2.5 mi WSW 3.5 mph - N/A   Overcast
7:02 AM 66.2 °F - 64.4 °F 94% 30.18 in 2.0 mi WSW 3.5 mph - N/A   Overcast
7:38 AM 66.2 °F - 64.4 °F 94% 30.18 in 1.8 mi WSW 3.5 mph - N/A   Overcast
7:45 AM 66.2 °F - 64.4 °F 94% 30.18 in 0.2 mi WSW 5.8 mph - N/A Fog Fog
7:51 AM 66.9 °F - 64.9 °F 93% 30.09 in 0.2 mi SW 5.8 mph - N/A Fog Fog
8:13 AM 66.2 °F - 64.4 °F 94% 30.18 in 1.0 mi WSW 5.8 mph - N/A   Overcast
8:28 AM 66.2 °F - 64.4 °F 94% 30.17 in 2.0 mi WSW 4.6 mph - N/A   Overcast
8:51 AM 68.0 °F - 64.9 °F 90% 30.08 in 2.5 mi SW 4.6 mph - N/A   Overcast
8:59 AM 69.8 °F - 66.2 °F 88% 30.17 in 4.0 mi SW 5.8 mph - N/A   Mostly Cloudy
9:23 AM 69.8 °F - 64.4 °F 83% 30.17 in 4.0 mi SW 4.6 mph - N/A   Haze
9:51 AM 71.1 °F - 64.9 °F 81% 30.07 in 4.0 mi WSW 5.8 mph - N/A   Haze
10:41 AM 73.4 °F - 66.2 °F 78% 30.17 in 6.0 mi Calm Calm - N/A   Haze
10:51 AM 73.9 °F - 66.0 °F 76% 30.08 in 6.0 mi West 4.6 mph - N/A   Haze
11:07 AM 75.2 °F - 66.2 °F 73% 30.17 in 7.0 mi West 3.5 mph - N/A   Mostly Cloudy
11:38 AM 77.0 °F - 62.6 °F 61% 30.17 in 10.0 mi NW 8.1 mph - N/A   Mostly Cloudy
11:51 AM 78.1 °F - 63.0 °F 60% 30.06 in 10.0 mi Variable 6.9 mph - N/A   Scattered Clouds
12:51 PM 80.1 °F 81.7 °F 64.0 °F 58% 30.04 in 10.0 mi WNW 8.1 mph - N/A   Partly Cloudy
1:51 PM 77.0 °F - 64.0 °F 64% 30.05 in 10.0 mi WNW 5.8 mph - N/A   Mostly Cloudy
2:17 PM 78.8 °F - 64.4 °F 61% 30.14 in 10.0 mi WSW 5.8 mph - N/A   Mostly Cloudy
2:32 PM 77.0 °F - 64.4 °F 65% 30.14 in 10.0 mi WSW 4.6 mph - N/A   Mostly Cloudy
2:51 PM 78.1 °F - 64.9 °F 64% 30.02 in 10.0 mi WNW 4.6 mph - N/A   Scattered Clouds
3:51 PM 77.0 °F - 63.0 °F 62% 30.00 in 10.0 mi WSW 3.5 mph - N/A   Partly Cloudy
4:51 PM 75.9 °F - 64.0 °F 67% 29.99 in 10.0 mi WSW 3.5 mph - N/A   Clear
5:51 PM 73.0 °F - 66.0 °F 79% 30.01 in 6.0 mi SW 3.5 mph - 0.00 in Rain Light Rain
6:46 PM 69.8 °F - 66.2 °F 88% 30.09 in 2.5 mi SSW 5.8 mph - 0.09 in Rain Rain
6:51 PM 70.0 °F - 66.9 °F 90% 30.00 in 3.0 mi SSW 5.8 mph - 0.10 in Rain Light Rain
7:51 PM 70.0 °F - 66.9 °F 90% 29.99 in 3.0 mi SSE 3.5 mph - 0.02 in   Overcast
8:51 PM 69.1 °F - 66.9 °F 93% 29.99 in 3.0 mi SSW 3.5 mph - N/A   Overcast
9:51 PM 69.1 °F - 66.0 °F 90% 29.98 in 6.0 mi South 3.5 mph - N/A   Overcast
10:51 PM 68.0 °F - 66.0 °F 93% 29.95 in 6.0 mi South 4.6 mph - N/A   Overcast
11:51 PM 66.9 °F - 64.0 °F 90% 29.94 in 10.0 mi SSW 4.6 mph - N/A   Scattered Clouds